The Cajun Classic - trainer 65 miles

Station: Oakdale - T Race

Distance: 65 Miles    

Release: 12-Sep-2017 08:45

Weather Release:    Arrival:

Wind at Release:     Wind at Arrival:

Temp at Release: °    Temp at Arrival: °

Lofts: 45

Birds: 181

Clocked: 119

Good Luck to Everyone!
Drops Pos Breeder Pigeon Name Color Sex Ent Arrival Speed To Win Eligible
1 Pigeon Palace - LA 0350-AU17-LAF BB C 1 10:07:38.30 1384.345 00:00:00 Yes
2 Johnson/Mailhes - LA 0185-AU17-LAF BC H 1 10:07:39.50 1384.010 00:00:01 Yes
3 H H H No 2 - TX 19854-AU17-FOYS BB H 1 10:07:40.20 1383.815 00:00:02 Yes
4 Aucoin & Rivero Loft - LA 1625-AU17-AUCO BCWF C 1 10:07:42.90 1383.062 00:00:05 Yes
6 Zero's Loft - NM 3316-AU17-AA BCPD H 1 10:07:44.60 1382.589 00:00:06 Yes
7 Carroll Hoover - PA 1062-IF17-RLPC BB C 1 10:07:46.00 1382.199 00:00:08 Yes
8 B & S Loft 2 - LA 0783-AU17-LAF BCWF H 1 10:07:46.50 1382.060 00:00:08 Yes
9 New Orleans Boys 2 - LA 0307-AU17-MET BB C 1 10:08:19.40 1372.965 00:00:41 Yes
10 Bucktown Loft - LA 1611-AU17-AUCO BB H 1 10:08:21.10 1372.498 00:00:43 Yes
11 Oaktree - LA 0726-AU17-OAK BCP H 1 10:08:23.60 1371.812 00:00:45 Yes
12 Johnson/Mailhes - LA 0179-AU17-LAF BC C 2 10:08:26.10 1371.127 00:00:48 Yes
13 John Fukumoto - HI 0388-AU17-HAWN BB C 1 10:08:27.40 1370.771 00:00:49 Yes
14 J B Loft - LA 0924-AU17-BRFT Pied Piper Ii BBWF C 1 10:09:12.20 1358.616 00:01:34 Yes
15 Nanez Family Lofts - WI 4180-AU17-NANE DC C 1 10:09:13.60 1358.240 00:01:35 Yes
18 Ed Minvielle - LA 17014-AU17-A BC C 1 10:09:23.00 1355.718 00:01:45 Yes
19 H H H No 2 - TX 19862-AU17-FOYS BB H 2 10:09:27.10 1354.621 00:01:49 Yes
20 Hollywood Lou Loft - FL 0037-AU17-HLOU BBWF C 1 10:09:30.50 1353.713 00:01:52 Yes
21 J B Loft - LA 0923-AU17-BRFT Chief BCWF C 2 10:09:41.90 1350.676 00:02:04 Yes
22 Toca Ridge Loft - LA 7385-AU17-AA DC H 1 10:10:27.90 1338.560 00:02:50 Yes
23 Poorshow Loft - LA 22422-AU17-AA GRIZ C 1 10:10:39.00 1335.668 00:03:01 Yes
24 Bayou Lofts - LA 0724-AU17-BRFT BC H 1 10:10:41.70 1334.967 00:03:03 Yes
25 Vick Corso - LA 1261-AU17-CORS DC H 1 10:10:46.30 1333.774 00:03:08 Yes
26 Oaktree - LA 0715-AU17-OAK BC H 2 10:10:51.60 1332.402 00:03:13 Yes
27 Cajun Express Loft - LA 0811-AU17-CEL BB C 1 10:11:19.50 1325.224 00:03:41 Yes
29 Bottoms Up Loft - TX 8658-AU17-AA BC C 1 10:11:26.40 1323.461 00:03:48 Yes
30 Farmers Loft Of La - LA 0726-AU17-FARM BCP H 1 10:11:27.80 1323.104 00:03:49 Yes
31 Hollywood Lou Loft - FL 0045-AU17-HLOU BC C 2 10:11:30.30 1322.467 00:03:52 Yes
32 Red Ass Ranch - TX 0134-AU17-RAR BBWF C 1 10:11:31.90 1322.059 00:03:54 Yes
33 New Orleans Boys 2 - LA 0523-AU17-DELT BBPD C 2 10:11:32.20 1321.983 00:03:54 Yes
34 Red Ass Ranch - TX 0133-AU17-RAR BBWF H 2 10:11:33.70 1321.601 00:03:55 Yes
35 H H H No 2 - TX 19853-AU17-FOYS BB C 3 10:11:34.60 1321.372 00:03:56 Yes
36 Vick Corso - LA 1252-AU17-CORS BC H 2 10:11:34.90 1321.296 00:03:57 Yes
37 Black Magic Loft - TX 0402-AU17-BLAC BB H 1 10:11:40.00 1320.000 00:04:02 Yes
38 John Fukumoto - HI 0366-AU17-HAWN BB H 2 10:11:42.00 1319.493 00:04:04 Yes
39 Texas Trio 2 - TX 4035-AU17-TEXA BBWF C 1 10:11:42.40 1319.391 00:04:04 Yes
40 John Fukumoto - HI 0377-AU17-HAWN BB C 3 10:11:42.90 1319.264 00:04:05 Yes
42 Ganus Family Loft - IN 0362-AU17-GFL BB C 1 10:11:47.30 1318.150 00:04:09 Yes
44 Texas Trio 2 - TX 1018-AU17-VPR BB H 2 10:11:52.50 1316.835 00:04:14 Yes
45 Red Ass Ranch - TX 0137-AU17-RAR BB C 3 10:11:58.60 1315.295 00:04:20 Yes
46 Hynes - LA 1358-AU17-SLID BC C 1 10:12:06.30 1313.357 00:04:28 Missing
47 Ed Minvielle - LA 17032-AU17-A BB H 2 10:12:07.30 1313.106 00:04:29 Yes
48 Black Magic Loft - TX 0403-AU17-BLAC BB C 2 10:12:07.60 1313.031 00:04:29 Yes
49 A P C Loft - TX 17149-AU17-APC BBWF H 1 10:12:08.00 1312.930 00:04:30 Yes
50 Red Ass Ranch - TX 0132-AU17-RAR BBWF H 4 10:12:14.10 1311.400 00:04:36 Yes
51 Pigeon Palace - LA 0320-AU17-LAF BBWF C 2 10:12:14.60 1311.275 00:04:36 Yes
52 Ed Minvielle - LA 17041-AU17-A BBWF H 3 10:12:16.00 1310.924 00:04:38 Yes
53 El Dorado Loft - TX 0153-AU17-TEXA BB C 1 10:12:16.60 1310.774 00:04:38 Yes
54 Texas Trio 2 - TX 1017-AU17-VPR BBWF H 3 10:12:21.40 1309.574 00:04:43 Yes
54 Pigeon Palace - LA 0364-AU17-LAF BB H 3 10:12:21.40 1309.574 00:04:43 Yes
56 Texas Trio 2 - TX 4135-AU17-TEXA BB C 4 10:12:26.60 1308.276 00:04:48 Yes
57 Carroll Hoover - PA 1067-IF17-RLPC BB H 2 10:12:27.00 1308.176 00:04:49 Yes
58 Carroll Hoover - PA 1066-IF17-RLPC SIL H 3 10:12:27.40 1308.076 00:04:49 Yes
59 Clear Springs Loft - FL 17034-AU17-WARD BB C 1 10:12:28.00 1307.927 00:04:50 Yes
60 Black Gold Loft - TX 22156-AU17-AA BB C 1 10:12:29.30 1307.603 00:04:51 Yes
61 Southern Belle - GA 0012-AU17-NEA DC H 1 10:12:30.00 1307.429 00:04:52 Yes
62 Mcconnell Loft - FL 1842-AU17-GHC BC H 1 10:12:31.60 1307.030 00:04:53 Yes
63 Black Gold Loft - TX 22119-AU17-AA BB C 2 10:12:32.20 1306.881 00:04:54 Yes
64 A P C Loft - TX 17141-AU17-APC BBWF H 2 10:12:32.60 1306.781 00:04:54 Yes
65 A P C Loft - TX 17139-AU17-APC BB H 3 10:12:34.60 1306.284 00:04:56 Yes
66 Ed Minvielle - LA 17021-AU17-A BBWF C 4 10:12:37.40 1305.588 00:04:59 Yes
67 Pigeon Palace - LA 0369-AU17-LAF BB H 4 10:12:40.00 1304.943 00:05:02 Yes
68 Nanez Family Lofts - WI 4175-AU17-NANE BB H 3 10:12:41.60 1304.546 00:05:03 Yes
69 El Dorado Loft - TX 0151-AU17-TEXA BC H 2 10:13:39.30 1290.395 00:06:01 Yes
70 Bottoms Up Loft - TX 8667-AU17-AA BB C 2 10:13:41.70 1289.813 00:06:03 Yes
71 Ganus Family Loft - IN 0751-AU17-GFL BC C 2 10:13:43.80 1289.305 00:06:05 Yes
72 Redtex - TX 0016-AU17-REDT SILV C 1 10:13:47.60 1288.385 00:06:09 Yes
73 Oaktree - LA 0719-AU17-OAK BC H 3 10:14:15.70 1281.625 00:06:37 Yes
74 Johnson/Mailhes - LA 0150-AU17-LAF BC C 3 10:14:18.60 1280.932 00:06:40 Yes
75 Nanez Family Lofts - WI 4190-AU17-NANE BB C 4 10:15:28.20 1264.508 00:07:50 Yes
76 Pigeon Palace - LA 0332-AU17-LAF BB H 5 10:15:29.40 1264.228 00:07:51 Yes
77 Black Magic Loft - TX 0410-AU17-BLAC GRIZ C 3 10:15:29.90 1264.112 00:07:52 Yes
79 Zero's Loft - NM 0420-AU17-PB SLAT H 2 10:15:37.80 1262.275 00:07:59 Yes
80 Espo Loft - SC 0957-AU17-ESPO BC H 1 10:15:45.10 1260.583 00:08:07 Yes
81 Black Gold Loft - TX 0820-AU17-BLGO BC C 3 10:15:46.80 1260.189 00:08:09 Yes
82 Ganus Family Loft - IN 0732-AU17-GFL BB C 4 10:15:51.60 1259.080 00:08:13 Yes
83 Bucktown Loft - LA 1628-AU17-AUCO BB C 2 10:15:52.60 1258.849 00:08:14 Yes
84 Gilbert Wiltz - TX 10938-AU17-AA BBWF C 2 10:15:54.80 1258.341 00:08:16 Yes
85 A P C Loft - TX 17154-AU17-APC BB C 4 10:15:55.40 1258.203 00:08:17 Yes
86 Farmers Loft Of La - LA 0733-AU17-FARM BBP H 2 10:15:57.70 1257.673 00:08:19 Yes
87 Aucoin & Rivero Loft - LA 1627-AU17-AUCO BC H 2 10:15:58.60 1257.465 00:08:20 Yes
88 Texas Trio 2 - TX 4084-AU17-TEXA BB H 5 10:16:33.00 1249.590 00:08:55 Yes
89 Lyons Loft - TX 1204-AU17-TXHC BB H 1 10:16:36.80 1248.727 00:08:58 Yes
90 A P C Loft - TX 17159-AU17-APC BB H 5 10:16:39.00 1248.227 00:09:01 Yes
91 Hynes - LA 1357-AU17-SLID BCWF H 2 10:16:42.00 1247.546 00:09:04 Yes
92 John Fukumoto - HI 0355-AU17-HAWN BB C 4 10:16:54.00 1244.831 00:09:16 Yes
93 Mcconnell Loft - FL 1844-AU17-GHC BB H 2 10:17:34.40 1235.777 00:09:56 Yes
94 Clear Springs Loft - FL 17017-AU17-WARD BB H 2 10:18:33.20 1222.832 00:10:55 Yes
95 Nanez Family Lofts - WI 4295-AU17-NANE BB H 5 10:18:49.60 1219.270 00:11:11 Yes
96 Ed Minvielle - LA 17023-AU17-A BCSP C 5 10:18:58.70 1217.302 00:11:20 Yes
97 Espo Loft - SC 0955-AU17-ESPO BC C 2 10:19:23.70 1211.929 00:11:45 Yes
98 Red Ass Ranch - TX 0135-AU17-RAR BB C 5 10:19:30.50 1210.475 00:11:52 Yes
100 Carroll Hoover - PA 1071-IF17-RLPC BB H 4 10:21:21.80 1187.174 00:13:43 Yes
101 Nanez Family Lofts - WI 4169-AU17-NANE BB C 6 10:21:32.90 1184.899 00:13:55 Yes
102 New Orleans Boys 2 - LA 0510-AU17-DELT BB H 3 10:21:36.30 1184.204 00:13:58 Yes
103 Lyons Loft - TX 1202-AU17-TXHC BB C 2 10:25:25.90 1139.083 00:17:48 Yes
104 J & K Of Tx - TX 0421-AU17-PB RC C 1 10:29:18.70 1096.713 00:21:40 Yes
105 Tom Cosgriff - NJ 0030-AU17-ARPU BC C 1 10:29:57.70 1089.922 00:22:19 Missing
106 Gilbert Wiltz - TX 10941-AU17-AA BCWF C 3 10:30:02.20 1089.143 00:22:24 Inj
107 Bottoms Up Loft - TX 8671-AU17-AA BC H 3 10:31:18.10 1076.183 00:23:40 Yes
108 Vick Corso - LA 1246-AU17-CORS BC H 3 10:33:22.90 1055.529 00:25:45 Yes

There are 118 bird records

Note: These Race Results are unofficial and subject to change until verified by the Race Committee and declared final.